Regional Weather Roundup
Issued by NWS

Home | Current Version | Previous Version | Text Only | Print | Product List | Glossary On
Versions: 1 2 3 4 5 6 7 8 9 10 11 12 13 14 15 16 17 18 19 20 21 22 23 24 25 26 27 28 29 30 31 32 33 34 35 36 37 38 39 40 41 42 43 44 45 46 47 48 49 50
000
ASUS43 KTOP 190159
RWRKS

WEATHER ROUNDUP FOR KANSAS
NATIONAL WEATHER SERVICE GOODLAND KS
800 PM CST THU JAN 18 2018

NOTE:  "FAIR" INDICATES FEW OR NO CLOUDS BELOW 12,000 FEET WITH NO
SIGNIFICANT WEATHER AND/OR OBSTRUCTIONS TO VISIBILITY.

KSZ001>006-013>018-027>032-041>047-190300-
NORTHWEST KANSAS

CITY           SKY/WX    TMP DP  RH WIND       PRES   REMARKS
GOODLAND       MOCLDY    45  12  26 SW10      29.94F
HAYS           CLOUDY    39  18  42 SW7       29.97F
HILL CITY      CLOUDY    45  14  28 SW10      29.94F
RUSSELL        CLOUDY    43  22  43 S14       29.96S
$$

KSZ061>065-074>080-084>089-190300-
SOUTHWEST KANSAS

CITY           SKY/WX    TMP DP  RH WIND       PRES   REMARKS
DODGE CITY     CLOUDY    36  14  40 S9        30.01S
GARDEN CITY    CLOUDY    38  13  35 S6        29.98S
GREAT BEND     CLOUDY    38  18  44 S8        30.01S
LIBERAL        CLOUDY    41  11  29 SW12      30.01S
$$

KSZ066>073-081>083-090>101-190300-
SOUTHEAST KANSAS

CITY           SKY/WX    TMP DP  RH WIND       PRES   REMARKS
CHANUTE        CLOUDY    37  20  50 S13       30.14S WCI  29
COFFEYVILLE    CLOUDY    33  19  56 S6        30.18S
HUTCHINSON     CLOUDY    40  23  50 S12       30.04S WCI  33
MEDICINE LODGE   N/A     40  20  44 S13       30.05S WCI  32
NEWTON         CLOUDY    40  23  50 S18       30.05F WCI  31
PARSONS        CLOUDY    35  19  52 S6        30.18R
WICHITA INTL   CLOUDY    39  22  50 S14       30.08R WCI  31
WICHITA JABRA  CLOUDY    41  22  46 S16       30.08R
WICHITA MCCONL CLOUDY    40  20  45 SW14      30.08S WCI  32
WINFIELD       CLOUDY    39  16  39 S10       30.13S WCI  32
$$

KSZ007>012-019>026-033>040-048>060-102>105-190300-
NORTHEAST KANSAS

CITY           SKY/WX    TMP DP  RH WIND       PRES   REMARKS
CONCORDIA      CLOUDY    41  24  51 S20       29.94F
EMPORIA        CLOUDY    38  22  52 S14       30.07S WCI  30
LAWRENCE       CLOUDY    33  23  66 SE7       30.07S
MANHATTAN      CLOUDY    33  23  66 CALM      30.01F
OLATHE IND     CLOUDY    33  22  63 S13       30.08F WCI  24
OLATHE EXE     CLOUDY    32  21  64 S10       30.08S WCI  24
SALINA         CLOUDY    42  26  53 S15       30.01S
TOPEKA BILLARD CLOUDY    39  25  57 S6        30.04F
TOPEKA FORBES  CLOUDY    39  26  59 S13       30.03F WCI  31
$$




USA.gov is the U.S. government's official web portal to all federal, state and local government web resources and services.